Home > Time Zones > World Clock > Weather > Spain > Palma > Past weeks

Flag Weather past 2 weeks in Palma, Majorca, Spain

Now
63 °F

Passing clouds.


Feels Like: 63 °F
Forecast: 60 / 68 °F
Wind: No wind

Location: Palma De Mallorca / Son San Juan

Current Time: Nov 24, 2014 at 9:42:56 PM

Latest Report: Nov 24, 2014 at 9:00 PM


Visibility: N/A

Pressure: 30.07 "Hg

Humidity: 94%

Dew point: 61 °F

Location of PalmaLocation

Historic Weather in Palma — Graph

°F

Palma temperature yesterday

Maximum temperature yesterday: 81 °F (at 1:30 PM)
Minimum temperature yesterday: 54 °F (at 3:30 AM)
Average temperature yesterday: 64 °F

Past Weeks' High & Low Weather Summary

 TemperatureHumidityPressure
High81 °F (Nov 23, 1:30 PM)100% (Nov 10, 6:30 AM)30.15 "Hg (Nov 10, 6:30 AM)
Low43 °F (Nov 19, 6:30 AM)39% (Nov 23, 3:30 PM)29.62 "Hg (Nov 11, 8:02 PM)
Average61 °F81%29.92 "Hg
* Reported Nov 9 8:00 PM — Nov 24 8:30 PM, Palma, Weather by CustomWeather, © 2014

Note: Actual official high and low records may vary slightly from our data, if they occured in-between our weather recording intervals... More about our weather records

Advertising

Palma weather history for previous 24 hours

 ConditionsComfort  
Time TempWeatherWind HumidityBarometerVisibility
8:30 PM
Nov 24
64 °FPassing clouds.2 mph88%30.04 "HgN/A
8:00 PM64 °FPassing clouds.2 mph88%30.04 "HgN/A
7:30 PM66 °FPassing clouds.2 mph83%30.04 "HgN/A
7:00 PM66 °FPassing clouds.No wind83%30.04 "HgN/A
6:30 PM68 °FPassing clouds.No wind78%30.04 "HgN/A
6:00 PM68 °FClear.No wind78%30.01 "Hg10 mi
5:30 PM68 °FClear.No wind83%30.01 "Hg10 mi
5:00 PM70 °FSunny.2 mph73%30.01 "Hg10 mi
4:30 PM70 °FPassing clouds.5 mph73%30.01 "HgN/A
4:00 PM72 °FPassing clouds.7 mph69%30.01 "HgN/A
3:30 PM72 °FPassing clouds.8 mph73%30.01 "HgN/A
3:00 PM72 °FPassing clouds.9 mph73%30.01 "HgN/A
2:30 PM72 °FPassing clouds.9 mph69%30.01 "HgN/A
2:00 PM73 °FPassing clouds.10 mph69%30.01 "HgN/A
1:30 PM72 °FPassing clouds.8 mph69%30.01 "HgN/A
1:00 PM73 °FPassing clouds.7 mph65%30.01 "HgN/A
12:30 PM73 °FPassing clouds.7 mph69%30.01 "HgN/A
12:00 PM73 °FPassing clouds.6 mph65%30.04 "HgN/A
11:30 AM72 °FSunny.1 mph73%30.04 "Hg10 mi
11:00 AM70 °FSunny.No wind78%30.04 "Hg10 mi
10:30 AM66 °FSunny.No wind88%30.04 "Hg10 mi
10:00 AM63 °FSunny.No wind94%30.04 "Hg10 mi
9:30 AM61 °FSunny.2 mph94%30.01 "Hg10 mi
9:00 AM61 °FSunny.2 mph88%30.04 "Hg10 mi
8:30 AM59 °FSunny.2 mph94%30.01 "Hg10 mi
8:00 AM57 °FPassing clouds.2 mph100%30.01 "HgN/A
7:30 AM59 °FPassing clouds.2 mph94%30.01 "HgN/A
7:00 AM59 °FPassing clouds.3 mph94%30.01 "HgN/A
6:30 AM59 °FPassing clouds.2 mph94%30.01 "HgN/A
6:00 AM61 °FPassing clouds.3 mph88%30.01 "HgN/A
5:30 AM61 °FPassing clouds.5 mph88%29.98 "HgN/A
5:00 AM61 °FPassing clouds.5 mph88%29.98 "HgN/A
4:30 AM61 °FPassing clouds.5 mph88%29.98 "HgN/A
4:00 AM61 °FPassing clouds.7 mph88%29.98 "HgN/A
3:30 AM61 °FPassing clouds.3 mph88%29.98 "HgN/A
3:00 AM63 °FPassing clouds.2 mph83%29.98 "HgN/A
2:30 AM64 °FPassing clouds.1 mph83%29.98 "HgN/A
2:00 AM64 °FPassing clouds.1 mph78%29.98 "HgN/A
1:30 AM66 °FPassing clouds.No wind73%30.01 "HgN/A
12:30 AM68 °FClear.3 mph69%30.01 "Hg10 mi
12:00 AM66 °FPassing clouds.8 mph73%30.01 "HgN/A
11:30 PM
Nov 23
66 °FClear.10 mph73%30.01 "Hg10 mi
11:00 PM66 °FPassing clouds.9 mph73%30.01 "HgN/A
10:30 PM66 °FPassing clouds.10 mph68%30.01 "HgN/A
10:00 PM64 °FPassing clouds.6 mph73%30.01 "HgN/A
9:30 PM63 °FClear.No wind77%30.01 "Hg10 mi
9:00 PM64 °FPassing clouds.1 mph68%30.01 "HgN/A
Weather by CustomWeather, © 2014

See weather overviewHow to use our weather pages